Time,TemperatureF,DewpointF,PressureIn,WindDirection,WindDirectionDegrees,WindSpeedMPH,WindSpeedGustMPH,Humidity,HourlyPrecipIn,Conditions,Clouds,dailyrainin,SolarRadiationWatts/m^2,SoftwareType,DateUTC
2013-03-15 00:02:00,43.0,43.0,-100.00,West,265,15.0,23.0,100,0.00,,,0.00,1.000000,,2013-03-15 07:02:00,
2013-03-15 00:12:00,43.0,43.0,-100.00,West,265,15.0,23.0,100,0.00,,,0.00,1.000000,,2013-03-15 07:12:00,
2013-03-15 00:32:00,43.0,43.0,-100.00,West,266,13.0,27.0,100,0.00,,,0.00,1.000000,,2013-03-15 07:32:00,
2013-03-15 00:42:00,43.0,43.0,-100.00,West,266,13.0,27.0,100,0.00,,,0.00,1.000000,,2013-03-15 07:42:00,
2013-03-15 00:52:00,43.0,43.0,-100.00,West,266,13.0,27.0,100,0.00,,,0.00,1.000000,,2013-03-15 07:52:00,
2013-03-15 01:02:00,43.0,43.0,-100.00,West,266,13.0,27.0,100,0.00,,,0.00,1.000000,,2013-03-15 08:02:00,
2013-03-15 01:12:00,43.0,43.0,-100.00,West,266,13.0,27.0,100,0.00,,,0.00,1.000000,,2013-03-15 08:12:00,
2013-03-15 01:33:00,43.0,43.0,-100.00,West,262,13.0,22.0,100,0.00,,,0.00,1.000000,,2013-03-15 08:33:00,
2013-03-15 01:42:00,43.0,43.0,-100.00,West,262,13.0,22.0,100,0.00,,,0.00,1.000000,,2013-03-15 08:42:00,
2013-03-15 01:52:00,43.0,43.0,-100.00,West,262,13.0,22.0,100,0.00,,,0.00,1.000000,,2013-03-15 08:52:00,
2013-03-15 02:02:00,43.0,43.0,-100.00,West,262,13.0,22.0,100,0.00,,,0.00,1.000000,,2013-03-15 09:02:00,
2013-03-15 02:11:00,43.0,43.0,-100.00,West,262,13.0,22.0,100,0.00,,,0.00,1.000000,,2013-03-15 09:11:00,
2013-03-15 02:33:00,43.0,43.0,-100.00,West,262,12.0,20.0,100,0.00,,,0.00,1.000000,,2013-03-15 09:33:00,
2013-03-15 02:43:00,43.0,43.0,-100.00,West,262,12.0,20.0,100,0.00,,,0.00,1.000000,,2013-03-15 09:43:00,
2013-03-15 02:53:00,43.0,43.0,-100.00,West,262,12.0,20.0,100,0.00,,,0.00,1.000000,,2013-03-15 09:53:00,
2013-03-15 03:02:00,43.0,43.0,-100.00,West,262,12.0,20.0,100,0.00,,,0.00,1.000000,,2013-03-15 10:02:00,
2013-03-15 03:12:00,43.0,43.0,-100.00,West,262,12.0,20.0,100,0.00,,,0.00,1.000000,,2013-03-15 10:12:00,
2013-03-15 03:33:00,43.0,43.0,-100.00,West,267,9.0,22.0,100,0.01,,,0.01,1.000000,,2013-03-15 10:33:00,
2013-03-15 03:43:00,43.0,43.0,-100.00,West,267,9.0,22.0,100,0.01,,,0.01,1.000000,,2013-03-15 10:43:00,
2013-03-15 03:52:00,43.0,43.0,-100.00,West,267,9.0,22.0,100,0.01,,,0.01,1.000000,,2013-03-15 10:52:00,
2013-03-15 04:02:00,43.0,43.0,-100.00,West,267,9.0,22.0,100,0.01,,,0.01,1.000000,,2013-03-15 11:02:00,
2013-03-15 04:11:00,43.0,43.0,-100.00,West,267,9.0,22.0,100,0.01,,,0.01,1.000000,,2013-03-15 11:11:00,
2013-03-15 04:32:00,43.0,43.0,-100.00,West,263,8.0,16.0,100,0.00,,,0.01,1.000000,,2013-03-15 11:32:00,
2013-03-15 04:42:00,43.0,43.0,-100.00,West,263,8.0,16.0,100,0.00,,,0.01,1.000000,,2013-03-15 11:42:00,
2013-03-15 04:52:00,43.0,43.0,-100.00,West,263,8.0,16.0,100,0.00,,,0.01,1.000000,,2013-03-15 11:52:00,
2013-03-15 05:02:00,43.0,43.0,-100.00,West,263,8.0,16.0,100,0.00,,,0.01,1.000000,,2013-03-15 12:02:00,
2013-03-15 05:12:00,43.0,43.0,-100.00,West,263,8.0,16.0,100,0.00,,,0.01,1.000000,,2013-03-15 12:12:00,
2013-03-15 05:32:00,43.0,43.0,-100.00,West,266,7.0,14.0,100,0.00,,,0.01,1.000000,,2013-03-15 12:32:00,
2013-03-15 05:42:00,43.0,43.0,-100.00,West,266,7.0,14.0,100,0.00,,,0.01,1.000000,,2013-03-15 12:42:00,
2013-03-15 05:52:00,43.0,43.0,-100.00,West,266,7.0,14.0,100,0.00,,,0.01,1.000000,,2013-03-15 12:52:00,
2013-03-15 06:02:00,43.0,43.0,-100.00,West,266,7.0,14.0,100,0.00,,,0.01,1.000000,,2013-03-15 13:02:00,
2013-03-15 06:12:00,43.0,43.0,-100.00,West,266,7.0,14.0,100,0.00,,,0.01,1.000000,,2013-03-15 13:12:00,
2013-03-15 06:42:00,43.0,43.0,-100.00,West,269,7.0,11.0,100,0.00,,,0.01,1.000000,,2013-03-15 13:42:00,
2013-03-15 06:52:00,43.0,43.0,-100.00,West,269,7.0,11.0,100,0.00,,,0.01,1.000000,,2013-03-15 13:52:00,
2013-03-15 07:02:00,43.0,43.0,-100.00,West,269,7.0,11.0,100,0.00,,,0.01,1.000000,,2013-03-15 14:02:00,
2013-03-15 07:11:00,43.0,43.0,-100.00,West,269,7.0,11.0,100,0.00,,,0.01,1.000000,,2013-03-15 14:11:00,
2013-03-15 07:33:00,43.0,43.0,-100.00,West,266,8.0,13.0,100,0.00,,,0.01,1.000000,,2013-03-15 14:33:00,
2013-03-15 07:42:00,43.0,43.0,-100.00,West,266,8.0,13.0,100,0.00,,,0.01,1.000000,,2013-03-15 14:42:00,
2013-03-15 07:53:00,43.0,43.0,-100.00,West,266,8.0,13.0,100,0.00,,,0.01,1.000000,,2013-03-15 14:53:00,
2013-03-15 08:02:00,43.0,43.0,-100.00,West,266,8.0,13.0,100,0.00,,,0.01,1.000000,,2013-03-15 15:02:00,
2013-03-15 08:12:00,43.0,43.0,-100.00,West,266,8.0,13.0,100,0.00,,,0.01,1.000000,,2013-03-15 15:12:00,
2013-03-15 08:33:00,42.0,42.0,-100.00,West,270,10.0,16.0,100,0.00,,,0.01,16.000000,,2013-03-15 15:33:00,
2013-03-15 08:43:00,42.0,42.0,-100.00,West,270,10.0,16.0,100,0.00,,,0.01,16.000000,,2013-03-15 15:43:00,
2013-03-15 08:53:00,42.0,42.0,-100.00,West,270,10.0,16.0,100,0.00,,,0.01,16.000000,,2013-03-15 15:53:00,
2013-03-15 09:02:00,42.0,42.0,-100.00,West,270,10.0,16.0,100,0.00,,,0.01,16.000000,,2013-03-15 16:02:00,
2013-03-15 09:12:00,42.0,42.0,-100.00,West,270,10.0,16.0,100,0.00,,,0.01,16.000000,,2013-03-15 16:12:00,
2013-03-15 09:32:00,44.0,44.0,-100.00,West,266,9.0,19.0,100,0.00,,,0.01,70.000000,,2013-03-15 16:32:00,
2013-03-15 09:42:00,44.0,44.0,-100.00,West,266,9.0,19.0,100,0.00,,,0.01,70.000000,,2013-03-15 16:42:00,
2013-03-15 09:52:00,44.0,44.0,-100.00,West,266,9.0,19.0,100,0.00,,,0.01,70.000000,,2013-03-15 16:52:00,
2013-03-15 10:02:00,44.0,44.0,-100.00,West,266,9.0,19.0,100,0.00,,,0.01,70.000000,,2013-03-15 17:02:00,
2013-03-15 10:12:00,44.0,44.0,-100.00,West,266,9.0,19.0,100,0.00,,,0.01,70.000000,,2013-03-15 17:12:00,
2013-03-15 10:32:00,45.0,44.0,-100.00,West,260,7.0,13.0,97,0.00,,,0.01,158.000000,,2013-03-15 17:32:00,
2013-03-15 10:42:00,45.0,44.0,-100.00,West,260,7.0,13.0,97,0.00,,,0.01,158.000000,,2013-03-15 17:42:00,
2013-03-15 10:52:00,45.0,44.0,-100.00,West,260,7.0,13.0,97,0.00,,,0.01,158.000000,,2013-03-15 17:52:00,
2013-03-15 11:02:00,45.0,44.0,-100.00,West,260,7.0,13.0,97,0.00,,,0.01,158.000000,,2013-03-15 18:02:00,
2013-03-15 11:11:00,45.0,44.0,-100.00,West,260,7.0,13.0,97,0.00,,,0.01,158.000000,,2013-03-15 18:11:00,
2013-03-15 11:42:00,49.0,45.0,-100.00,West,272,7.0,15.0,87,0.00,,,0.01,304.000000,,2013-03-15 18:42:00,
2013-03-15 11:52:00,49.0,45.0,-100.00,West,272,7.0,15.0,87,0.00,,,0.01,304.000000,,2013-03-15 18:52:00,
2013-03-15 12:02:00,49.0,45.0,-100.00,West,272,7.0,15.0,87,0.00,,,0.01,304.000000,,2013-03-15 19:02:00,
2013-03-15 12:12:00,49.0,45.0,-100.00,West,272,7.0,15.0,87,0.00,,,0.01,304.000000,,2013-03-15 19:12:00,
2013-03-15 12:42:00,51.0,44.0,-100.00,WSW,257,7.0,14.0,77,0.00,,,-99.99,385.000000,,2013-03-15 19:42:00,
2013-03-15 12:52:00,51.0,44.0,-100.00,WSW,257,7.0,14.0,77,0.00,,,-99.99,385.000000,,2013-03-15 19:52:00,
2013-03-15 13:02:00,51.0,44.0,-100.00,WSW,257,7.0,14.0,77,0.00,,,-99.99,385.000000,,2013-03-15 20:02:00,
2013-03-15 13:12:00,51.0,44.0,-100.00,WSW,257,7.0,14.0,77,0.00,,,-99.99,385.000000,,2013-03-15 20:12:00,
2013-03-15 13:42:00,53.0,43.0,-100.00,West,270,5.0,9.0,69,0.00,,,0.01,394.000000,,2013-03-15 20:42:00,
2013-03-15 13:52:00,53.0,43.0,-100.00,West,270,5.0,9.0,69,0.00,,,0.01,394.000000,,2013-03-15 20:52:00,
2013-03-15 14:02:00,53.0,43.0,-100.00,West,270,5.0,9.0,69,0.00,,,0.01,394.000000,,2013-03-15 21:02:00,
2013-03-15 14:11:00,53.0,43.0,-100.00,West,270,5.0,9.0,69,0.00,,,0.01,394.000000,,2013-03-15 21:11:00,
2013-03-15 14:43:00,55.0,41.0,-100.00,West,266,7.0,15.0,58,0.00,,,0.01,559.000000,,2013-03-15 21:43:00,
2013-03-15 14:52:00,55.0,41.0,-100.00,West,266,7.0,15.0,58,0.00,,,0.01,559.000000,,2013-03-15 21:52:00,
2013-03-15 15:03:00,55.0,41.0,-100.00,West,266,7.0,15.0,58,0.00,,,0.01,559.000000,,2013-03-15 22:03:00,
2013-03-15 15:12:00,55.0,41.0,-100.00,West,266,7.0,15.0,58,0.00,,,0.01,559.000000,,2013-03-15 22:12:00,
2013-03-15 15:33:00,53.0,42.0,-100.00,West,261,8.0,16.0,65,0.00,,,0.01,354.000000,,2013-03-15 22:33:00,
2013-03-15 15:42:00,53.0,42.0,-100.00,West,261,8.0,16.0,65,0.00,,,0.01,354.000000,,2013-03-15 22:42:00,
2013-03-15 15:52:00,53.0,42.0,-100.00,West,261,8.0,16.0,65,0.00,,,0.01,354.000000,,2013-03-15 22:52:00,
2013-03-15 16:02:00,53.0,42.0,-100.00,West,261,8.0,16.0,65,0.00,,,0.01,354.000000,,2013-03-15 23:02:00,
2013-03-15 16:12:00,53.0,42.0,-100.00,West,261,8.0,16.0,65,0.00,,,0.01,354.000000,,2013-03-15 23:12:00,
2013-03-15 16:42:00,53.0,43.0,-100.00,WNW,301,5.0,15.0,68,0.00,,,0.01,257.000000,,2013-03-15 23:42:00,
2013-03-15 16:53:00,53.0,43.0,-100.00,WNW,301,5.0,15.0,68,0.00,,,0.01,257.000000,,2013-03-15 23:53:00,
2013-03-15 17:02:00,53.0,43.0,-100.00,WNW,301,5.0,15.0,68,0.00,,,0.01,257.000000,,2013-03-16 00:02:00,
2013-03-15 17:12:00,53.0,43.0,-100.00,WNW,301,5.0,15.0,68,0.00,,,0.01,257.000000,,2013-03-16 00:12:00,
2013-03-15 18:32:00,53.0,43.0,-100.00,West,269,8.0,12.0,69,-99.99,,,0.01,168.000000,,2013-03-16 01:32:00,
2013-03-15 18:42:00,53.0,43.0,-100.00,West,269,8.0,12.0,69,-99.99,,,0.01,168.000000,,2013-03-16 01:42:00,
2013-03-15 18:52:00,53.0,43.0,-100.00,West,269,8.0,12.0,69,-99.99,,,0.01,168.000000,,2013-03-16 01:52:00,
2013-03-15 19:02:00,53.0,43.0,-100.00,West,269,8.0,12.0,69,-99.99,,,0.01,168.000000,,2013-03-16 02:02:00,
2013-03-15 19:12:00,53.0,43.0,-100.00,West,269,8.0,12.0,69,-99.99,,,0.01,168.000000,,2013-03-16 02:12:00,
2013-03-15 19:43:00,47.0,43.0,-100.00,West,268,8.0,16.0,86,0.00,,,0.01,39.000000,,2013-03-16 02:43:00,
2013-03-15 19:52:00,47.0,43.0,-100.00,West,268,8.0,16.0,86,0.00,,,0.01,39.000000,,2013-03-16 02:52:00,
2013-03-15 20:02:00,47.0,43.0,-100.00,West,268,8.0,16.0,86,0.00,,,0.01,39.000000,,2013-03-16 03:02:00,
2013-03-15 20:12:00,47.0,43.0,-100.00,West,268,8.0,16.0,86,0.00,,,0.01,39.000000,,2013-03-16 03:12:00,
2013-03-15 20:43:00,45.0,42.0,-100.00,West,271,7.0,14.0,88,0.00,,,0.01,1.000000,,2013-03-16 03:43:00,
2013-03-15 20:53:00,45.0,42.0,-100.00,West,271,7.0,14.0,88,0.00,,,0.01,1.000000,,2013-03-16 03:53:00,
2013-03-15 21:02:00,45.0,42.0,-100.00,West,271,7.0,14.0,88,0.00,,,0.01,1.000000,,2013-03-16 04:02:00,
2013-03-15 21:12:00,45.0,42.0,-100.00,West,271,7.0,14.0,88,0.00,,,0.01,1.000000,,2013-03-16 04:12:00,
2013-03-15 21:33:00,44.0,42.0,-100.00,West,268,7.0,12.0,91,0.00,,,0.01,1.000000,,2013-03-16 04:33:00,
2013-03-15 21:43:00,44.0,42.0,-100.00,West,268,7.0,12.0,91,0.00,,,0.01,1.000000,,2013-03-16 04:43:00,
2013-03-15 21:53:00,44.0,42.0,-100.00,West,268,7.0,12.0,91,0.00,,,0.01,1.000000,,2013-03-16 04:53:00,
2013-03-15 22:02:00,44.0,42.0,-100.00,West,268,7.0,12.0,91,0.00,,,0.01,1.000000,,2013-03-16 05:02:00,
2013-03-15 22:12:00,44.0,42.0,-100.00,West,268,7.0,12.0,91,0.00,,,0.01,1.000000,,2013-03-16 05:12:00,
2013-03-15 22:32:00,43.0,42.0,-100.00,West,270,7.0,16.0,97,0.00,,,0.01,1.000000,,2013-03-16 05:32:00,
2013-03-15 22:42:00,43.0,42.0,-100.00,West,270,7.0,16.0,97,0.00,,,0.01,1.000000,,2013-03-16 05:42:00,
2013-03-15 22:53:00,43.0,42.0,-100.00,West,270,7.0,16.0,97,0.00,,,0.01,1.000000,,2013-03-16 05:53:00,
2013-03-15 23:02:00,43.0,42.0,-100.00,West,270,7.0,16.0,97,0.00,,,0.01,1.000000,,2013-03-16 06:02:00,
2013-03-15 23:12:00,43.0,42.0,-100.00,West,270,7.0,16.0,97,0.00,,,0.01,1.000000,,2013-03-16 06:12:00,
2013-03-15 23:32:00,44.0,43.0,-100.00,West,273,6.0,15.0,95,0.00,,,-99.99,1.000000,,2013-03-16 06:32:00,
2013-03-15 23:42:00,44.0,43.0,-100.00,West,273,6.0,15.0,95,0.00,,,-99.99,1.000000,,2013-03-16 06:42:00,
2013-03-15 23:52:00,44.0,43.0,-100.00,West,273,6.0,15.0,95,0.00,,,-99.99,1.000000,,2013-03-16 06:52:00,